Regional Weather Roundup
Issued by NWS

Home | Current Version | Previous Version | Graphics & Text | Print | Product List | Glossary On
Versions: 1 2 3 4 5 6 7 8 9 10 11 12 13 14 15 16 17 18 19 20 21 22 23 24 25 26 27
000
ASUS45 KCYS 220510
RWRWY

WYOMING REGIONAL WEATHER ROUNDUP
NATIONAL WEATHER SERVICE CHEYENNE WY
1100 PM MDT SAT APR 21 2018

NOTE:  "FAIR" INDICATES FEW OR NO CLOUDS BELOW 12,000 FEET
WITH NO SIGNIFICANT WEATHER AND/OR OBSTRUCTIONS TO VISIBILITY.

WYZ001-220600-
YELLOWSTONE NATIONAL PARK

CITY           SKY/WX    TMP DP  RH WIND       PRES   REMARKS
LK YELLOWSTONE   N/A     29  24  82 CALM      30.25R
W YELLOWSTONE  NOT AVBL

$$
WYZ002>013-054>058-071-098>099-220600-
NORTHERN WYOMING

CITY           SKY/WX    TMP DP  RH WIND       PRES   REMARKS
JACKSON        FAIR      45  26  47 W5        30.20
CODY           FAIR      59  26  28 W9G18     30.08R
GREYBULL       FAIR      52  37  56 SE5       30.02R
WORLAND        FAIR      49  34  56 CALM      30.03R
SHERIDAN       FAIR      46  36  68 SW6       30.01S
BUFFALO        FAIR      50  34  54 S7        30.07F
GILLETTE       FAIR      43  36  76 S18       30.08R
HULETT         FAIR      45  36  70 S12       30.09F
NEWCASTLE      FAIR      39  32  75 E12G20    30.14F WCI  32

$$
WYZ014>020-022>026-101>103-220600-
CENTRAL WYOMING

CITY           SKY/WX    TMP DP  RH WIND       PRES   REMARKS
BIG PINEY      FAIR      36  23  59 N12       30.21S WCI  28
PINEDALE       FAIR      36  25  64 NW6       30.22S WCI  31
DUBOIS         FAIR      39  23  52 NW10      30.19R WCI  32
LANDER         FAIR      50  27  40 SW8       30.09R
RIVERTON       FAIR      52  25  35 W9        30.08F
CASPER         FAIR      42  37  82 E9        30.09R
DOUGLAS        FAIR      38  36  92 SE14      30.12S WCI  30

$$
WYZ021-027>030-104>119-220600-
SOUTHERN WYOMING

CITY           SKY/WX    TMP DP  RH WIND       PRES   REMARKS
EVANSTON       FAIR      42  26  53 W9        30.25S
KEMMERER       FAIR      41  27  56 NW6       30.24R
FORT BRIDGER   FAIR      46  27  46 W10       30.26R
ROCK SPRINGS   FAIR      45  23  42 SW12      30.18R
DIXON          FAIR      39  32  76 NE5       30.21S
RAWLINS          N/A    N/A N/A N/A MISG      30.14F
SARATOGA       FAIR      39  32  75 SE3       30.17S
LARAMIE        FAIR      30  30 100 S10       30.15S WCI  21
CHEYENNE       CLOUDY    35  35 100 S10       30.17S WCI  27
TORRINGTON     FAIR      36  36 100 SE12      30.15F WCI  28
PINE BLUFFS    CLOUDY    36  36 100 MISG      30.18F

$$




USA.gov is the U.S. government's official web portal to all federal, state and local government web resources and services.